• In Deutschland
  • Länderverzeichnis
  • Für 7 Tage
  • Wassertemperatur
  • Satellitenkarten
  • Wetterkarte
  • Widgets
  • user-avatar
    Anmelden

    Stündliche Wetter Waldshut-Tiengen

    Heute, 21 Januar, Sonntag

    Zeit Temperatur Niederschläge Wind Luftdruck Luftfeuchtigkeit
    00:00 +6°C° 1 mm 5 m/S 720 mmHg 92%
    01:00 +6°C° 1 mm 4 m/S 721 mmHg 92%
    02:00 +5°C° 0,4 mm 4 m/S 721 mmHg 92%
    03:00 +5°C° 0,4 mm 4 m/S 722 mmHg 92%
    04:00 +5°C° 0,4 mm 4 m/S 723 mmHg 91%
    05:00 +4°C° 0,2 mm 4 m/S 724 mmHg 91%
    06:00 +4°C° 0,2 mm 4 m/S 725 mmHg 90%
    07:00 +3°C° 0,2 mm 4 m/S 726 mmHg 90%
    08:00 +3°C° 0,2 mm 4 m/S 727 mmHg 89%
    09:00 +3°C° 0,2 mm 3 m/S 728 mmHg 87%
    10:00 +3°C° 0,2 mm 3 m/S 729 mmHg 86%
    11:00 +3°C° 0,2 mm 3 m/S 730 mmHg 84%
    12:00 +4°C° 0,2 mm 3 m/S 730 mmHg 82%
    13:00 +4°C° 0,2 mm 3 m/S 731 mmHg 80%
    14:00 +5°C° 0,2 mm 2 m/S 731 mmHg 81%
    15:00 +5°C° 0,2 mm 2 m/S 732 mmHg 82%
    16:00 +6°C° 0,2 mm 1 m/S 732 mmHg 83%
    17:00 +5°C° 0,5 mm 1 m/S 732 mmHg 85%
    18:00 +5°C° 0,5 mm 1 m/S 732 mmHg 88%
    19:00 +4°C° 0,5 mm 1 m/S 732 mmHg 90%
    20:00 +4°C° 0,9 mm 1 m/S 732 mmHg 91%
    21:00 +5°C° 0,9 mm 1 m/S 731 mmHg 92%
    22:00 +4°C° 0,9 mm 2 m/S 731 mmHg 93%
    23:00 +4°C° 1,4 mm 2 m/S 730 mmHg 93%

    Morgen, 22 Januar, Montag

    Zeit Temperatur Niederschläge Wind Luftdruck Luftfeuchtigkeit
    00:00 +5°C° 1,4 mm 2 m/S 729 mmHg 94%
    01:00 +4°C° 1,4 mm 3 m/S 729 mmHg 94%
    02:00 +5°C° 2 mm 4 m/S 728 mmHg 94%
    03:00 +6°C° 2 mm 4 m/S 728 mmHg 94%
    04:00 +7°C° 2 mm 5 m/S 727 mmHg 93%
    05:00 +7°C° 1,7 mm 5 m/S 727 mmHg 93%
    06:00 +7°C° 1,7 mm 5 m/S 727 mmHg 93%
    07:00 +8°C° 1,7 mm 5 m/S 727 mmHg 93%
    08:00 +8°C° 0,9 mm 5 m/S 728 mmHg 94%
    09:00 +8°C° 0,9 mm 4 m/S 728 mmHg 94%
    10:00 +8°C° 0,9 mm 4 m/S 729 mmHg 94%
    11:00 +8°C° 0,3 mm 4 m/S 729 mmHg 92%
    12:00 +10°C° 0,3 mm 4 m/S 729 mmHg 90%
    13:00 +10°C° 0,3 mm 4 m/S 729 mmHg 88%
    14:00 +10°C° 0,1 mm 4 m/S 730 mmHg 89%
    15:00 +10°C° 0,1 mm 3 m/S 730 mmHg 89%
    16:00 +9°C° 0,1 mm 3 m/S 730 mmHg 90%
    17:00 +9°C° 0,4 mm 2 m/S 730 mmHg 92%
    18:00 +8°C° 0,4 mm 2 m/S 731 mmHg 93%
    19:00 +8°C° 0,4 mm 2 m/S 731 mmHg 94%
    20:00 +9°C° 1,4 mm 1 m/S 731 mmHg 95%
    21:00 +8°C° 1,4 mm 1 m/S 731 mmHg 96%
    22:00 +8°C° 1,4 mm 1 m/S 732 mmHg 97%
    23:00 +8°C° 0,8 mm 1 m/S 732 mmHg 97%

    übermorgen, 23 Januar, Dienstag

    Zeit Temperatur Niederschläge Wind Luftdruck Luftfeuchtigkeit
    00:00 +8°C° 0,8 mm 1 m/S 733 mmHg 96%
    01:00 +7°C° 0,8 mm 1 m/S 733 mmHg 96%
    02:00 +7°C° 0,1 mm 1 m/S 734 mmHg 96%
    03:00 +6°C° 0,1 mm 1 m/S 734 mmHg 96%
    04:00 +6°C° 0,1 mm 1 m/S 735 mmHg 95%
    05:00 +6°C° 0 mm 1 m/S 735 mmHg 95%
    06:00 +5°C° 0 mm 1 m/S 736 mmHg 95%
    07:00 +5°C° 0 mm 1 m/S 736 mmHg 95%
    08:00 +6°C° 0 mm 1 m/S 736 mmHg 94%
    09:00 +7°C° 0 mm 1 m/S 737 mmHg 92%
    10:00 +6°C° 0 mm 0 m/S 737 mmHg 91%
    11:00 +8°C° 0 mm 1 m/S 737 mmHg 87%
    12:00 +9°C° 0 mm 1 m/S 737 mmHg 83%
    13:00 +11°C° 0 mm 1 m/S 737 mmHg 79%
    14:00 +10°C° 0 mm 1 m/S 737 mmHg 81%
    15:00 +10°C° 0 mm 1 m/S 737 mmHg 83%
    16:00 +10°C° 0 mm 1 m/S 737 mmHg 84%
    17:00 +9°C° 0 mm 1 m/S 737 mmHg 85%
    18:00 +8°C° 0 mm 1 m/S 738 mmHg 86%
    19:00 +7°C° 0 mm 1 m/S 738 mmHg 87%
    20:00 +6°C° 0 mm 1 m/S 738 mmHg 87%
    21:00 +6°C° 0 mm 1 m/S 738 mmHg 87%
    22:00 +6°C° 0 mm 1 m/S 739 mmHg 87%
    23:00 +6°C° 0 mm 1 m/S 739 mmHg 87%

    24 Januar, Mittwoch

    Zeit Temperatur Niederschläge Wind Luftdruck Luftfeuchtigkeit
    00:00 +5°C° 0 mm 1 m/S 738 mmHg 87%
    01:00 +4°C° 0 mm 2 m/S 738 mmHg 87%
    02:00 +5°C° 0 mm 1 m/S 738 mmHg 86%
    03:00 +5°C° 0 mm 1 m/S 738 mmHg 84%
    04:00 +5°C° 0 mm 1 m/S 738 mmHg 83%
    05:00 +5°C° 0 mm 1 m/S 738 mmHg 82%
    06:00 +5°C° 0 mm 1 m/S 738 mmHg 82%
    07:00 +6°C° 0 mm 1 m/S 738 mmHg 81%
    08:00 +6°C° 0 mm 1 m/S 738 mmHg 80%
    09:00 +7°C° 0 mm 1 m/S 738 mmHg 80%
    10:00 +8°C° 0 mm 1 m/S 738 mmHg 79%
    11:00 +9°C° 0 mm 1 m/S 738 mmHg 77%
    12:00 +11°C° 0 mm 1 m/S 737 mmHg 75%
    13:00 +12°C° 0 mm 1 m/S 737 mmHg 73%
    14:00 +12°C° 0 mm 1 m/S 736 mmHg 76%
    15:00 +11°C° 0 mm 1 m/S 736 mmHg 78%
    16:00 +11°C° 0 mm 1 m/S 736 mmHg 81%
    17:00 +10°C° 0 mm 1 m/S 736 mmHg 82%
    18:00 +9°C° 0 mm 1 m/S 736 mmHg 83%
    19:00 +7°C° 0 mm 1 m/S 736 mmHg 84%
    20:00 +7°C° 0 mm 1 m/S 736 mmHg 84%
    21:00 +7°C° 0 mm 1 m/S 736 mmHg 83%
    22:00 +6°C° 0 mm 1 m/S 736 mmHg 83%
    23:00 +6°C° 0 mm 1 m/S 736 mmHg 82%

    25 Januar, Donnerstag

    Zeit Temperatur Niederschläge Wind Luftdruck Luftfeuchtigkeit
    00:00 +6°C° 0 mm 1 m/S 735 mmHg 81%
    01:00 +6°C° 0 mm 1 m/S 735 mmHg 80%
    02:00 +6°C° 0 mm 1 m/S 735 mmHg 79%
    03:00 +5°C° 0 mm 1 m/S 734 mmHg 79%
    04:00 +5°C° 0 mm 1 m/S 734 mmHg 78%
    05:00 +5°C° 0 mm 1 m/S 734 mmHg 78%
    06:00 +5°C° 0 mm 1 m/S 734 mmHg 77%
    07:00 +5°C° 0 mm 1 m/S 734 mmHg 77%
    08:00 +6°C° 0 mm 1 m/S 733 mmHg 76%
    09:00 +7°C° 0 mm 1 m/S 733 mmHg 74%
    10:00 +8°C° 0 mm 1 m/S 733 mmHg 73%
    11:00 +9°C° 0 mm 1 m/S 733 mmHg 71%
    12:00 +10°C° 0 mm 1 m/S 732 mmHg 68%
    13:00 +12°C° 0 mm 2 m/S 732 mmHg 66%
    14:00 +11°C° 0 mm 1 m/S 732 mmHg 70%
    15:00 +11°C° 0 mm 1 m/S 732 mmHg 73%
    16:00 +11°C° 0 mm 1 m/S 731 mmHg 77%
    17:00 +10°C° 0 mm 1 m/S 732 mmHg 79%
    18:00 +9°C° 0 mm 1 m/S 732 mmHg 81%
    19:00 +7°C° 0 mm 2 m/S 732 mmHg 84%
    20:00 +8°C° 0 mm 1 m/S 732 mmHg 84%
    21:00 +7°C° 0 mm 1 m/S 732 mmHg 84%
    22:00 +7°C° 0 mm 1 m/S 732 mmHg 84%
    23:00 +7°C° 0,1 mm 1 m/S 733 mmHg 85%

    26 Januar, Freitag

    Zeit Temperatur Niederschläge Wind Luftdruck Luftfeuchtigkeit
    00:00 +7°C° 0,1 mm 1 m/S 733 mmHg 87%
    01:00 +7°C° 0,1 mm 1 m/S 733 mmHg 88%
    02:00 +6°C° 0,3 mm 1 m/S 733 mmHg 89%
    03:00 +6°C° 0,3 mm 1 m/S 733 mmHg 90%
    04:00 +6°C° 0,3 mm 1 m/S 733 mmHg 91%
    05:00 +6°C° 0,4 mm 1 m/S 734 mmHg 91%
    06:00 +6°C° 0,4 mm 1 m/S 734 mmHg 92%
    07:00 +5°C° 0,4 mm 0 m/S 734 mmHg 92%
    08:00 +5°C° 0,2 mm 0 m/S 735 mmHg 92%
    09:00 +5°C° 0,2 mm 0 m/S 735 mmHg 91%
    10:00 +5°C° 0,2 mm 0 m/S 735 mmHg 91%
    11:00 +6°C° 0,1 mm 0 m/S 736 mmHg 88%
    12:00 +6°C° 0,1 mm 0 m/S 736 mmHg 85%
    13:00 +7°C° 0,1 mm 0 m/S 736 mmHg 82%
    14:00 +7°C° 0,1 mm 0 m/S 736 mmHg 83%
    15:00 +7°C° 0,1 mm 0 m/S 736 mmHg 84%
    16:00 +7°C° 0,1 mm 0 m/S 736 mmHg 85%
    17:00 +6°C° 0,1 mm 0 m/S 737 mmHg 87%
    18:00 +6°C° 0,1 mm 0 m/S 737 mmHg 89%
    19:00 +5°C° 0,1 mm 0 m/S 738 mmHg 90%
    20:00 +5°C° 0,2 mm 0 m/S 738 mmHg 91%
    21:00 +5°C° 0,2 mm 0 m/S 739 mmHg 91%
    22:00 +5°C° 0,2 mm 0 m/S 739 mmHg 92%
    23:00 +5°C° 0,1 mm 0 m/S 740 mmHg 92%
    Mehr zeigen